Regional Weather Roundup
Issued by NWS Little Rock, AR

Home | Current Version | Previous Version | Graphics & Text | Print | Product List | Glossary On
Versions: 1 2 3 4 5 6 7 8 9 10 11 12 13 14 15 16 17 18 19 20 21 22 23 24 25 26 27 28 29 30 31 32
000
ASUS44 KLZK 210612
RWRLZK

WEATHER ROUNDUP FOR ARKANSAS
NATIONAL WEATHER SERVICE LITTLE ROCK AR
100 AM CDT FRI JUL 21 2017

NOTE: "FAIR" INDICATES FEW OR NO CLOUDS BELOW 12,000 FEET WITH NO
SIGNIFICANT WEATHER AND/OR OBSTRUCTIONS TO VISIBILITY.

ARZ001-003-010-029-210700-
NORTHWEST ARKANSAS

CITY           SKY/WX    TMP DP  RH WIND       PRES   REMARKS
FAYETTEVILLE   PTCLDY    74  74 100 CALM      30.06F
6HR MIN TEMP:  74; 6HR MAX TEMP:  89;

FORT SMITH     PTCLDY    84  76  76 CALM      30.01F HX  93
6HR MIN TEMP:  84; 6HR MAX TEMP:  97;

HARRISON       CLEAR     78  70  76 CALM      30.07F
6HR MIN TEMP:  77; 6HR MAX TEMP:  89;

BENTONVILLE    CLEAR     79  70  73 CALM      30.06F
6HR MIN TEMP:  79; 6HR MAX TEMP:  91;

ROGERS         CLEAR     78  72  81 S6        30.06F
6HR MIN TEMP:  78; 6HR MAX TEMP:  92;

SILOAM SPGS    CLEAR     75  70  83 S7        30.04F
6HR MIN TEMP:  75; 6HR MAX TEMP:  91;

HIGHFILL       CLEAR     77  72  84 S5        30.05F
6HR MIN TEMP:  76; 6HR MAX TEMP:  91;

$$

ARZ004-005-016-210700-
NORTH CENTRAL ARKANSAS

CITY           SKY/WX    TMP DP  RH WIND       PRES   REMARKS
BATESVILLE     CLEAR     82  73  74 SW5       30.02S HX  88
6HR MIN TEMP:  82; 6HR MAX TEMP:  91;

FLIPPIN        CLEAR     81  70  69 S6        30.02S
6HR MIN TEMP:  81; 6HR MAX TEMP:  93;

MTN HOME       CLEAR     80  74  81 W5        30.04S HX  85
6HR MIN TEMP:  80; 6HR MAX TEMP:  90;

$$

ARZ040-041-210700-
WEST CENTRAL ARKANSAS

CITY           SKY/WX    TMP DP  RH WIND       PRES   REMARKS
MENA           CLEAR     77  77 100 CALM      30.08S
MOUNT IDA      CLEAR     77  75  93 CALM      30.03F FOG
6HR MIN TEMP:  77; 6HR MAX TEMP:  90;

$$

ARZ009-017-025-026-028-210700-
NORTHEAST ARKANSAS

CITY           SKY/WX    TMP DP  RH WIND       PRES   REMARKS
JONESBORO      CLEAR     85  77  77 SW8       30.00S HX  95
6HR MIN TEMP:  84; 6HR MAX TEMP:  93;

WALNUT RIDGE   CLEAR     82  75  78 SW6       30.00S HX  89
6HR MIN TEMP:  82; 6HR MAX TEMP:  93;

BLYTHEVILLE    PTCLDY    81  78  91 S5        30.00F HX  89
6HR MIN TEMP:  81; 6HR MAX TEMP:  90;

$$

ARZ022-023-033-042-044-210700-
CENTRAL ARKANSAS

CITY           SKY/WX    TMP DP  RH WIND       PRES   REMARKS
LITTLE ROCK    CLEAR     82  76  81 SW6       30.02S HX  89
6HR MIN TEMP:  82; 6HR MAX TEMP:  92;

N LITTLE ROCK    N/A     81  76  82 CALM      30.01S HX  88
6HR MIN TEMP:  81; 6HR MAX TEMP:  90;

JACKSONVILLE   CLEAR     80  79  97 CALM      30.02S HX  86
6HR MIN TEMP:  80; 6HR MAX TEMP:  94;

CONWAY           N/A     81  77  89 S3        30.00S HX  88
SEARCY         CLEAR     79  79 100 CALM      30.03F FOG
6HR MIN TEMP:  79; 6HR MAX TEMP:  93;

HOT SPRINGS    CLEAR     81  77  88 CALM      30.04F HX  88
6HR MIN TEMP:  81; 6HR MAX TEMP:  93;

RUSSELLVILLE   CLEAR     78  77  96 CALM      30.02S
6HR MIN TEMP:  78; 6HR MAX TEMP:  92; 6HR PCP: TRACE;

CLINTON        FAIR      77  75  94 CALM      30.03F FOG
$$

ARZ036-210700-
EAST ARKANSAS

CITY           SKY/WX    TMP DP  RH WIND       PRES   REMARKS
WEST MEMPHIS   CLEAR     78  77  96 S3        30.00F
6HR MIN TEMP:  78; 6HR MAX TEMP:  91;

$$

ARZ050-053-066-070-073-210700-
SOUTHWEST ARKANSAS

CITY           SKY/WX    TMP DP  RH WIND       PRES   REMARKS
ARKADELPHIA    FAIR      78  78 100 CALM      30.02F FOG
6HR MIN TEMP:  78; 6HR MAX TEMP:  93;

CAMDEN         CLEAR     79  75  89 CALM      30.02F FOG
TEXARKANA      CLEAR     81  74  79 SE5       30.03F HX  86
6HR MIN TEMP:  81; 6HR MAX TEMP:  92;

EL DORADO      PTCLDY    80  78  94 CALM      30.03F HX  88
6HR MIN TEMP:  79; 6HR MAX TEMP:  91;

DE QUEEN       CLEAR     78  78 100 CALM      30.01S FOG
6HR MIN TEMP:  78; 6HR MAX TEMP:  93;

$$

ARZ056-057-069-210700-
SOUTHEAST ARKANSAS

CITY           SKY/WX    TMP DP  RH WIND       PRES   REMARKS
PINE BLUFF     CLEAR     80  77  90 S3        30.02F HX  87
6HR MIN TEMP:  80; 6HR MAX TEMP:  93;

STUTTGART      CLEAR     81  66  61 S6        30.03S
6HR MIN TEMP:  81; 6HR MAX TEMP:  95;

MONTICELLO     CLEAR     81  75  82 CALM      30.03S HX  87
6HR MIN TEMP:  80; 6HR MAX TEMP:  92;


$$






USA.gov is the U.S. government's official web portal to all federal, state and local government web resources and services.